Other Public Products
Issued by NWS Grand Forks, ND

Home | Current Version | Previous Version | Graphics & Text | Print | Product List | Glossary On
Versions: 1 2 3 4 5 6 7 8 9 10 11 12 13 14 15 16 17 18 19 20 21 22 23 24 25 26 27 28 29 30 31 32 33 34 35 36 37 38 39 40 41 42 43 44 45 46 47 48 49 50
000
FPUS83 KFGF 192210
OPUFGF
PRAIRIE TO PINES WEATHER ROUNDUP
NATIONAL WEATHER SERVICE EASTERN NORTH DAKOTA/GRAND FORKS ND
500 PM CDT SAT APR 19 2014

 **SATELLITE DATA USED TO AUGMENT SKY COVER AT AUTOMATED STATIONS**
 *****  WEATHER ACROSS EASTERN NORTH DAKOTA  *****

CITY           SKY/WX    TMP DP  RH WIND       PRES   REMARKS
GRAND FORKS    MOSUNNY   62  41  46 W17       29.87R
GRAND FORKS AF SUNNY     60  39  46 W21       29.90R
GRAND CITY NWS   N/A     63 N/A N/A W30         N/A
BUXTON         NOT AVBL
DEVILS LAKE    CLOUDY    48  37  66 W21       29.91R
FARGO          SUNNY     68  31  25 W22G28    29.90S
WAHPETON ARPT  CLEAR     68  23  18 W15G22    29.94S
$$

 *****  WEATHER ACROSS CENTRAL AND WESTERN NORTH DAKOTA  *****

CITY           SKY/WX    TMP DP  RH WIND       PRES   REMARKS
JAMESTOWN      SUNNY     66  30  26 W17       29.89S
BISMARCK       SUNNY     66  34  30 NW15G23   29.93S
MINOT          MOSUNNY   54  33  45 W18G28    29.91S
MINOT AFB      PTSUNNY   52  35  52 NW17G28   29.91S
GARRISON         N/A     57  35  43 W21G26    29.93F
WILLISTON      MOSUNNY   59  33  37 W12       29.92S
DICKINSON      SUNNY     62  30  29 W14G28    29.92F
HETTINGER      SUNNY     62  27  26 W20G29    29.97S
$$

 *****  OTHER OBSERVATIONS NORTHEAST NORTH DAKOTA  *****

CITY           SKY/WX    TMP DP  RH WIND       PRES   REMARKS
WALHALLA         N/A     54  37  54 W13G28    29.84R
LANGDON        FAIR      50  36  57 W31G37    29.85R
CAVALIER       FAIR      55  37  50 W22G30    29.84R
GRAFTON        MOCLDY    54  39  58 W26G35    29.87R
CANDO          CLOUDY    48  34  57 W21G31    29.90R
FORT TOTTEN      N/A     50  35  55 W12       29.95
ROLLA          MOCLDY    46  34  61 W25       29.89R
RUGBY          CLOUDY    48  36  61 W22       29.91R
 ***** THE ABOVE OBSERVATIONS ARE NON NWS ARE NOT QUALITY
        CONTROLLED AND MAY MIS-REPORT RAIN FOR SNOW...
$$

 *****  OTHER OBSERVATIONS SOUTHEAST NORTH DAKOTA *****

CITY           SKY/WX    TMP DP  RH WIND       PRES   REMARKS
COOPERSTOWN    FAIR      59  37  44 W22G31    29.90R
VALLEY CITY    FAIR      66  32  28 W18       29.90S
OAKES          FAIR      66  30  26 W14G23    29.92F
GWINNER        CLEAR     70  32  24 SW15G25   29.93F
SHEYENNE NWR     N/A     70  29  22 W10       29.95S
BUFFALO        NOT AVBL
WYNDMERE       NOT AVBL
 ***** THE ABOVE OBSERVATIONS ARE NON NWS ARE NOT QUALITY
       CONTROLLED AND MAY MIS-REPORT RAIN FOR SNOW...
$$

  *****  WEATHER ACROSS NORTHERN MINNESOTA  *****

CITY           SKY/WX    TMP DP  RH WIND       PRES   REMARKS
FLAG ISLAND    MOSUNNY   54  34  47 SW22G31   29.76S
WARROAD        MOSUNNY   57  41  54 SW17G32   29.82R
ROSEAU         MOSUNNY   55  41  58 W16G31    29.83R
HALLOCK          N/A     55  41  58 W25       29.84R
THF RVR FALLS  SUNNY     59  37  44 W20       29.88R
HALSTAD          N/A     66  34  30 W16         N/A
FOSSTON        SUNNY     64  32  29 W20G29    29.89S
BAUDETTE       MOSUNNY   61  35  37 SW15G29   29.81R
WASKISH        SUNNY     57  34  41 SW17G23   29.86R
CROOKSTON      MOSUNNY   63  39  42 W17       29.88S
$$
  *****  WEATHER ACROSS CENTRAL AND WEST MINNESOTA  *****

CITY           SKY/WX    TMP DP  RH WIND       PRES   REMARKS
BEMIDJI        SUNNY     64  32  30 SW16G22   29.88S
PARK RAPIDS    MOSUNNY   65  29  25 W21       29.91R
WADENA         MOSUNNY   64  36  34 W13       29.93R
DETROIT LAKES  SUNNY     63  30  29 SW14G20   29.93S
MOORHEAD       NOT AVBL
FERGUS FALLS   SUNNY     68  19  15 W18G24    29.90S
ELBOW LAKE     FAIR      68  30  24 W15       29.94S
MORRIS MN      MOSUNNY   70  32  24 W13       29.94S
STAPLES        MOSUNNY   66  28  24 W14G20    29.93R
WHEATON        MOSUNNY   72  34  25 SW9G20    29.95F
$$
  *****  WEATHER ELSEWHERE ACROSS MINNESOTA  *****

CITY           SKY/WX    TMP DP  RH WIND       PRES   REMARKS
DULUTH         PTSUNNY   42  32  67 S10       29.99F
INTRNTL FALLS  MOSUNNY   58  40  51 SW13G18   29.84R
ELY            MOSUNNY   45  34  65 S12G17    29.96F
CLOQUET        PTSUNNY   48  34  57 SE8       29.98F
BRAINERD       MOSUNNY   68  45  43 S15       29.93F
HIBBING        MOSUNNY   56  37  49 S10G20    29.93F
ALEXANDRIA     MOSUNNY   66  29  24 W13       29.95S
SAINT CLOUD    CLOUDY    60  47  61 VRB3      29.97F
MINNEAPOLIS    CLOUDY    64  47  53 SE8       29.99S
$$

  *****  WEATHER ACROSS SOUTH DAKOTA  *****

CITY           SKY/WX    TMP DP  RH WIND       PRES   REMARKS
SIOUX FALLS    CLOUDY    69  35  28 NW6       29.99S
BROOKINGS      NOT AVBL
WATERTOWN      MOSUNNY   66  26  22 NW10      29.97F
HURON          MOSUNNY   69  24  18 NW6       29.98S
SISSETON         N/A     70  27  20 NW13      29.93F
ABERDEEN       MOSUNNY   70  24  17 W12G24    29.95S
MITCHELL       PTSUNNY   66  24  20 CALM      30.01R
PIERRE         MOSUNNY   68  20  16 W8        29.98F
MOBRIDGE       SUNNY     69  26  20 NW17      29.93S
RAPID CITY     MOSUNNY   66  36  32 SE17      29.98F
$$

  *****  SOME WEATHER IN NEARBY STATES *****

CITY           SKY/WX    TMP DP  RH WIND       PRES   REMARKS
GLASGOW MT     MOSUNNY   62  29  28 W17G23    29.89F
GREAT FALLS MT MOSUNNY   63  12  13 SW20G28   29.83F
CHEYENNE WY    MOSUNNY   61  37  41 S12       30.04F
SCOTTSBLUFF NE MOSUNNY   64  33  31 SE9       30.01F
OMAHA NE       PTSUNNY   79  44  28 S20       29.97F
DES MOINES IA  CLOUDY    77  42  28 S17G26    30.04F
DAVENPORT IA   PTSUNNY   72  36  26 S15       30.15F
CHICAGO IL     PTSUNNY   65  36  34 SE12      30.23F
EAU CLAIRE WI  LGT RAIN  64  37  36 S18       30.03F
LA CROSSE WI   MOSUNNY   70  37  29 S16G23    30.08F
$$

  *****  SOME NATIONAL WEATHER *****

CITY           SKY/WX    TMP DP  RH WIND       PRES   REMARKS
LA GUARDIA NY  PTSUNNY   64  24  21 E12       30.24R
RALEIGH NC     CLOUDY    53  44  71 NE8       30.19R
ATLANTA GA     CLOUDY    59  54  82 E13       30.11R
NEW ORLEANS LA MOSUNNY   77  53  43 NW12      30.08F
OKLAHOMA CITY  CLOUDY    78  49  35 SE18G24   30.07F
ALBUQUERQUE NM CLOUDY    59  43  55 S10       30.08F
SALT LAKE CITY PTSUNNY   71  39  31 N10G18    29.98F
LOS ANGELES CA PTSUNNY   66  54  65 W12       30.00F
BOISE ID       SUNNY     74  23  15 E7        29.86F
SEATTLE WA     CLOUDY    50  48  93 SE10      29.92R
$$

*** WEATHER ACROSS MANITOBA...SASKATCHEWAN AND ONTARIO ***
                ***ONTARIO***

CITY           SKY/WX    TMP DP  RH WIND       PRES   REMARKS
GERALDTON      LGT SNOW  30  28  93 S9        30.18  VSB 3/4 WCI  22
THUNDER BAY    LGT RAIN  34  32  93 NE8       30.11F
SIOUX LOOKOUT  CLOUDY    36  32  87 S14G21    29.87F
TORONTO        MOSUNNY   48  30  49 S8        30.42R
BIG TROUT LK   LGT SNOW  34  30  86 S20G25    29.99F WCI  22
PICKLE LAKE    LGT SNOW  32  30  93 SE20G31   29.92F WCI  20
DRYDEN         CLOUDY    39  36  87 S17G23    29.83S
KENORA         PTSUNNY   52  34  50 SW24G36   29.77R
$$
                *** MANITOBA***

CITY           SKY/WX    TMP DP  RH WIND       PRES   REMARKS
BRANDON        CLOUDY    39  34  81 W22G31    29.86R
DAUPHIN        CLOUDY    37  30  75 W25G33    29.79R
ISLAND LAKE    FLURRIES  34  34 100 SE13G20   29.72  WCI  25
PILOT MOUND      N/A     45  34  65 W13G24      N/A
THE PAS        LGT SNOW  32  32 100 N6        29.75R
THOMPSON       LGT SNOW  32  32 100 E10       29.79  WCI  24
WINNIPEG       CLOUDY    45  37  76 W22G33    29.81R
LYNN LAKE      PTSUNNY   37  21  52 E14G22    29.82S
CHURCHILL      PTSUNNY   28  21  74 E12       30.09F WCI  18
GILLAM         FLURRIES  39  23  52 E16G22    29.90
$$
                ***SASKATCHEWAN***

CITY           SKY/WX    TMP DP  RH WIND       PRES   REMARKS
ESTEVAN        PTSUNNY   46  36  66 W17       29.93R
KINDERSLEY     PTSUNNY   48  34  57 W13       29.84F
LLOYDMINSTER   MOSUNNY   48  27  43 N6        29.79F
PRINCE ALBERT  PTSUNNY   39  27  60 NW13      29.83S
REGINA         CLOUDY    39  34  81 W14       29.90R



USA.gov is the U.S. government's official web portal to all federal, state and local government web resources and services.